Location: ????????
(41.2031°N, 22.5756°E)
Time: 15:53:04
(UTC+00:00)

Meteor 1-4 Rocket - Pass Details

Date: 01 December 2020
Orbit: 449 x 500 km, 81.2° (Epoch: 21 January)

Event Time Altitude Azimuth Distance (km) Brightness Sun altitude
Rises 15:54:04 0° 181° (S) 2,526 6.5 -9.8°
Reaches altitude 10° 15:56:11 10° 177° (S) 1,643 5.5 -10.2°
Maximum altitude 15:59:43 61° 97° (E) 539 2.5 -10.8°
Drops below altitude 10° 16:03:14 10° 17° (NNE) 1,627 4.9 -11.4°
Enters shadow 16:04:28 - 14° (NNE) 2,137 5.5 -11.7°
